TimeCST,TemperatureF,Dew PointF,Humidity,Sea Level PressureIn,VisibilityMPH,Wind Direction,Wind SpeedMPH,Gust SpeedMPH,PrecipitationIn,Events,Conditions,WindDirDegrees,DateUTC
6:00 AM,72,70,91,29.88,12,West,3.5,,,,,280,2012-11-04 12:00:00
6:00 AM,71.6,69.8,94,29.87,-9999.0,West,3.5,-,N/A,,Clear,280,2012-11-04 12:00:00
7:00 AM,80.6,73.4,79,29.88,-9999.0,Calm,Calm,-,N/A,,Clear,0,2012-11-04 13:00:00
8:00 AM,78.8,71.6,78,29.90,-9999.0,SSW,4.6,-,N/A,,Clear,210,2012-11-04 14:00:00
9:00 AM,85,71,55,29.91,12,East,8.1,,,,Scattered Clouds,100,2012-11-04 15:00:00
9:00 AM,84.2,71.6,66,29.90,-9999.0,East,8.1,-,N/A,,Clear,100,2012-11-04 15:00:00
10:00 AM,86.0,69.8,58,29.89,6.2,East,12.7,-,N/A,,Scattered Clouds,80,2012-11-04 16:00:00
11:00 AM,87.8,69.8,55,29.87,6.2,ENE,12.7,-,N/A,,Scattered Clouds,60,2012-11-04 17:00:00
12:00 PM,88,69,44,29.86,12,ENE,12.7,,,,Scattered Clouds,60,2012-11-04 18:00:00
12:00 PM,87.8,69.8,55,29.85,6.2,ENE,12.7,-,N/A,,Scattered Clouds,60,2012-11-04 18:00:00
1:00 PM,89.6,69.8,52,29.82,6.2,ENE,11.5,-,N/A,,Mostly Cloudy,70,2012-11-04 19:00:00
2:00 PM,89.6,69.8,52,29.80,6.2,NE,8.1,-,N/A,,Scattered Clouds,50,2012-11-04 20:00:00
3:00 PM,89,69,43,29.79,12,ENE,11.5,,,,Scattered Clouds,60,2012-11-04 21:00:00
3:00 PM,89.6,69.8,52,29.78,6.2,ENE,11.5,-,N/A,,Scattered Clouds,60,2012-11-04 21:00:00
4:00 PM,89.6,69.8,52,29.77,6.2,ESE,3.5,-,N/A,,Scattered Clouds,110,2012-11-04 22:00:00
5:00 PM,84.2,69.8,62,29.79,6.2,NNE,5.8,-,N/A,,Scattered Clouds,30,2012-11-04 23:00:00
6:00 PM,80,74,76,29.83,12,West,6.9,,,,Scattered Clouds,270,2012-11-05 00:00:00
6:00 PM,78.8,73.4,83,29.81,6.2,West,6.9,-,N/A,,Partly Cloudy,270,2012-11-05 00:00:00
7:00 PM,78.8,75.2,89,29.85,6.2,Calm,Calm,-,N/A,,Partly Cloudy,0,2012-11-05 01:00:00
8:00 PM,78.8,75.2,89,29.86,6.2,Calm,Calm,-,N/A,,Partly Cloudy,0,2012-11-05 02:00:00